ARIANE 5 R/B, 41030

Orbit data source: Space-Track

ARIANE 5 R/B, 41030 is space debris in HEO originally from a launch on Tue, 10 Nov 2015 UTC launched from the French Guiana (FRGUI). Debris objects in space refer to the collection of defunct objects orbiting the Earth. Examples of debris include non-operational satellites, rocket bodies, and fragments generated from explosions, collisions, or faulty payload assembly.

Loading next visibility...
Identifier
41030, 2015-065C
Orbit
HEO
Last TLE update
13 hours ago
Origin
Manufacturer
Airbus Safran
Mission
Spacecraft
Bus & Motor
ESC-A, Unknown motor
Mass
~5,000 kg wet, ~5,000 kg dry
Launch date (UTC)
2015-11-10 (9 years ago)
Launch vehicle
Unknown
Launch site
French Guiana (FRGUI)
Object type
Payload
Rocket body
Debris
Shape & HBR
Cyl + 1 Nozzle, 7 m
Radar Cross Section
41.627 m², Large (>1 m²)

Expand to show TLE details & history

TLE from 13 hours ago
0 ARIANE 5 R/B
1 41030U 15065C   25128.84942541  .00017968  00000-0  18204-2 0  9998
2 41030   4.1519 109.6589 7104652 320.8888   4.8852  2.52834206 82313
Epoch: 2025-05-08T20:23Z
Definitive object data (Epoch: 2025-05-08T20:23:10.355Z)
Latitude
-0.0003°
Longitude
-62.75314°
Altitude
887.34 km
Speed
9.602 km/s
True Right ascension
07h 19m 48s
True Declination
0° 00' 01"
Sunlit
Object was in daylight at TLE epoch
Visualization TLE readout
Latitude
3.26969°
Longitude
64.62384°
Altitude
30,085.979 km
Speed
2.085 km/s
Apparent Right ascension
15h 36m 37s
Apparent Declination
-3° 34' 40"
Sunlit
Object is in daylight
Visualization observer readout
Local Sidereal Time
17:13:46
Azimuth
213.022° SW
Elevation
41.125°
Doppler factor
1
Orbital elements
Apogee altitude
32,562.009 km
Perigee altitude
213.361 km
Semi-major axis
22,765.822 km
Eccentricity
0.7104652
Inclination
4.1519°
RAAN
109.6589°
Arg. of periapsis
320.8888°
True anomaly
38.45537°
Mean anomaly
4.8852°
Eccentric anomaly
16.33207°
Mean motion
0.63186 °/min
BSTAR
0.0018204
Orbital period
569.75 mins
Loading maneuver chart data...
Loading SW <> Apogee altitude chart data...
Loading historical data...
Loading historical data...
Loading historical data...
Loading historical data...
Loading historical data...
Loading historical data...
Loading historical data...
Other satellites on launch #65 in the year 2015 (2015-11-10 UTC)

ARIANE 5 R/B Visibility forecast

Observer location: undefined°, undefined°

Span
Click to sort rows by Start time (UTC) header in descending order
Start Az.
Max El. time (UTC)
Max El. Az.
Max El.
End time (UTC)
End Az.
347 mins2025-05-09 09:04:30.836Z213.008° SW2025-05-09 09:04:30.836Z213.008° SW33.324°2025-05-09 14:51:30.836Z179.401° S
481 mins2025-05-10 01:03:30.836Z162.906° S2025-05-10 07:22:30.836Z130.255° SE26.675°2025-05-10 09:04:30.836Z127.118° SE
|